Location: Baix
(44.7118°N, 4.7648°E)
Time: 15:48:11
(UTC+00:00)

Explorer 11/Cluster Stage 4 - Pass Details

Date: 26 November 2020
Orbit: 467 x 1258 km, 28.8° (Epoch: 14 January)

Event Time Altitude Azimuth Distance (km) Brightness Sun altitude
Rises 23:33:10 0° 232° (SW) 3,301 - -66.4°
Reaches altitude 10° 23:37:40 10° 200° (SSW) 2,146 - -66.4°
Maximum altitude 23:39:13 11° 182° (S) 1,979 - -66.4°
Drops below altitude 10° 23:40:42 10° 163° (SSE) 2,001 - -66.3°
Sets 23:44:26 0° 128° (SE) 2,737 - -66.2°
